DateTimeUTC,F1_A11,F1_S11,BsB_S11,BsG_S11,BsR_S11,BbsB_S11,BbsG_S11,BbsR_S11,BaB_A11,BaG_A11,BaR_A11,Tu_S11,T_S11,Uu_S11,U_S11,P_S11,T1_A11
2021-03-13T00:00:00Z,00000200,21000000,,,,,,,0000.52,-000.19,-000.18,17.0,24.5,,00.0,0638.7,31.0
2021-03-13T00:01:00Z,00000200,21000000,,,,,,,-000.19,0000.10,0000.44,17.0,24.5,,00.0,0638.7,30.9
2021-03-13T00:02:00Z,00000200,21000000,,,,,,,-000.02,0000.35,-000.47,17.0,24.5,,00.0,0638.7,30.9
2021-03-13T00:03:00Z,00000200,61000000,,,,,,,-000.09,-000.11,0000.21,17.0,24.5,,00.0,0638.7,30.9
2021-03-13T00:04:00Z,00000200,41000000,-000.17,-000.13,0000.09,0000.09,-000.03,0000.06,-000.23,-000.55,-000.18,17.2,24.4,,00.0,0639.6,30.9
2021-03-13T00:05:00Z,00000200,01000000,-000.30,0000.17,-000.04,0000.20,-000.07,0000.11,0000.10,-000.02,0000.22,17.2,24.3,,00.0,0639.7,30.9
2021-03-13T00:06:00Z,00000200,01000000,0000.31,0000.17,-000.09,0000.17,0000.20,-000.29,0000.32,0000.24,-000.11,17.1,24.3,,00.0,0639.7,30.9
2021-03-13T00:07:00Z,00000200,01000000,0000.19,0000.09,0000.14,-000.19,-000.02,-000.02,-000.74,0000.08,-000.35,17.1,24.2,,00.0,0639.7,30.9
2021-03-13T00:08:00Z,00000200,01000000,0000.24,0000.24,-000.06,0000.08,0000.07,0000.05,0000.15,-000.40,-000.17,17.0,24.2,,00.0,0639.7,30.9
2021-03-13T00:09:00Z,00000200,01000000,0000.45,0000.06,0000.02,0000.23,-000.14,-000.00,-000.17,-000.32,0000.29,17.0,24.2,,00.0,0639.7,30.9
2021-03-13T00:10:00Z,00000200,01000000,0000.27,0000.11,0000.04,0000.40,0000.22,0000.16,0000.12,0000.03,-000.01,16.9,24.2,,00.0,0639.7,30.9
2021-03-13T00:11:00Z,00000200,01000000,0000.10,-000.04,0000.07,0000.06,0000.09,0000.11,-000.04,0000.18,-000.37,16.9,24.2,,00.0,0639.7,30.9
2021-03-13T00:12:00Z,00000200,01000000,0000.14,0000.29,0000.12,-000.05,0000.09,0000.09,0000.08,0000.06,0000.35,16.9,24.1,,00.0,0639.7,30.9
2021-03-13T00:13:00Z,00000200,01000000,-000.08,0000.09,0000.40,0000.42,0000.03,-000.00,0000.33,0000.43,0000.05,16.9,24.1,,00.0,0639.7,30.9
2021-03-13T00:14:00Z,00000200,01000000,0000.34,0000.03,0000.02,0000.53,-000.21,-000.08,0000.22,0000.01,0000.15,17.0,24.1,,00.0,0639.7,30.9
2021-03-13T00:15:00Z,00000200,01000000,0000.47,0000.14,-000.13,0000.22,-000.08,0000.10,-000.02,0000.68,0000.56,17.0,24.1,,00.0,0639.7,30.9
2021-03-13T00:16:00Z,00000200,01000000,0000.19,0000.06,0000.36,0000.15,0000.09,0000.12,0000.39,-000.41,-000.06,17.1,24.2,,00.0,0639.7,30.9
2021-03-13T00:17:00Z,00000200,01000000,0000.26,0000.26,0000.20,0000.20,-000.06,0000.13,0000.20,0000.34,-000.05,17.1,24.2,,00.0,0639.7,30.9
2021-03-13T00:18:00Z,00000200,01000000,0000.08,0000.16,0000.30,-000.28,0000.26,0000.04,-000.02,-000.08,-000.23,17.2,24.2,,00.0,0639.7,30.9
2021-03-13T00:19:00Z,00000200,01000000,0000.70,0000.10,-000.14,0000.20,0000.05,0000.07,0000.29,0000.31,0000.21,17.3,24.3,,00.0,0639.7,31.0
2021-03-13T00:20:00Z,00000200,01000000,-000.29,0000.23,0000.21,-000.10,0000.19,0000.04,0000.20,0000.40,0000.45,17.3,24.3,,00.0,0639.7,31.0
2021-03-13T00:21:00Z,00000200,01000000,0000.69,0000.47,-000.09,0000.03,0000.01,0000.08,-000.02,-000.16,0000.05,17.4,24.3,,00.0,0639.7,31.0
2021-03-13T00:22:00Z,00000200,01000000,0000.16,0000.04,-000.13,-000.04,-000.11,-000.17,0000.03,-000.18,0000.08,17.5,24.4,,00.0,0639.7,31.0
2021-03-13T00:23:00Z,00000200,01000000,-000.29,0000.16,0000.11,0000.47,-000.04,-000.25,0000.29,0000.48,-000.07,17.5,24.4,,00.0,0639.7,31.0
2021-03-13T00:24:00Z,00000200,01000000,-000.68,0000.13,0000.08,0000.52,0000.02,0000.27,-000.10,-000.00,0000.22,17.6,24.4,,00.0,0639.7,31.0
2021-03-13T00:25:00Z,00000200,01000000,-000.33,0000.33,0000.16,0000.25,0000.02,0000.09,0000.22,0000.32,0000.10,17.5,24.4,,00.0,0639.7,31.0
2021-03-13T00:26:00Z,00000200,01000000,0000.50,0000.29,0000.28,0000.53,0000.10,0000.02,0000.54,-000.02,-000.01,17.5,24.4,,00.0,0639.7,31.0
2021-03-13T00:27:00Z,00000200,01000000,-000.54,0000.34,-000.28,0000.09,0000.19,-000.07,-000.25,0000.07,0000.17,17.4,24.4,,00.0,0639.7,31.0
2021-03-13T00:28:00Z,00000200,01000000,-000.17,0000.16,0000.05,0000.10,0000.02,-000.05,-000.29,-000.15,-000.29,17.4,24.4,,00.0,0639.7,30.9
2021-03-13T00:29:00Z,00000200,01000000,0000.19,0000.21,-000.13,0000.09,0000.12,0000.14,0000.08,0000.14,0000.27,17.3,24.4,,00.0,0639.7,30.9
2021-03-13T00:30:00Z,00000200,01000000,-000.24,0000.18,-000.19,0000.14,-000.06,0000.11,0000.19,-000.21,-000.01,17.3,24.4,,00.0,0639.7,30.9
2021-03-13T00:31:00Z,00000200,01000000,-000.04,0000.24,0000.34,-000.25,-000.04,0000.02,0000.11,0000.01,0000.01,17.2,24.3,,00.0,0639.7,30.9
2021-03-13T00:32:00Z,00000200,01000000,-000.42,0000.17,-000.03,-000.02,0000.03,-000.14,0000.31,0000.33,0000.07,17.2,24.3,,00.0,0639.7,30.9
2021-03-13T00:33:00Z,00000200,01000000,0000.20,0000.21,0000.03,-000.30,-000.00,-000.05,-000.33,-000.05,0000.14,17.1,24.3,,00.0,0639.7,30.9
2021-03-13T00:34:00Z,00000200,01000000,0000.21,0000.21,-000.09,0000.01,0000.07,0000.06,0000.25,-000.08,-000.28,17.1,24.2,,00.0,0639.7,30.9
2021-03-13T00:35:00Z,00000200,01000000,0000.10,0000.01,0000.07,0000.32,0000.13,-000.04,0000.05,0000.58,0000.53,17.0,24.2,,00.0,0639.6,30.9
2021-03-13T00:36:00Z,00000200,01000000,0000.15,0000.45,-000.11,0000.28,0000.12,-000.09,0000.09,-000.03,0000.08,17.0,24.2,,00.0,0639.6,30.9
2021-03-13T00:37:00Z,00000200,01000000,0000.22,0000.17,0000.00,0000.18,0000.13,0000.14,0000.23,0000.30,-000.03,17.0,24.2,,00.0,0639.7,30.9
2021-03-13T00:38:00Z,00000200,01000000,0000.07,0000.14,0000.20,0000.06,0000.15,0000.14,0000.00,-000.18,-000.29,16.9,24.1,,00.0,0639.6,30.9
2021-03-13T00:39:00Z,00000200,01000000,0000.31,0000.32,0000.05,-000.20,0000.15,-000.05,0000.11,-000.26,0000.37,16.9,24.1,,00.0,0639.6,30.9
2021-03-13T00:40:00Z,00000200,01000000,0000.06,0000.38,0000.20,0000.18,0000.27,0000.14,-000.10,0000.11,-000.44,16.8,24.1,,00.0,0639.6,30.9
2021-03-13T00:41:00Z,00000200,01000000,0000.08,0000.00,0000.04,0000.07,0000.24,-000.26,-000.03,-000.10,0000.30,16.8,24.0,,00.0,0639.6,30.9
2021-03-13T00:42:00Z,00000200,01000000,0000.24,0000.13,0000.10,-000.28,-000.02,-000.07,0000.13,0000.68,0000.06,16.7,24.0,,00.0,0639.6,30.8
2021-03-13T00:43:00Z,00000200,01000000,0000.32,0000.29,0000.13,0000.49,0000.14,0000.18,-000.08,-000.78,0000.06,16.8,24.0,,00.0,0639.6,30.9
2021-03-13T00:44:00Z,00000200,01000000,0000.25,0000.14,0000.24,0000.31,0000.18,0000.10,-000.04,0000.11,-000.13,16.8,24.0,,00.0,0639.6,30.9
2021-03-13T00:45:00Z,00000200,01000000,-000.11,-000.03,-000.13,0000.17,0000.08,-000.05,-000.01,-000.01,0000.47,16.9,24.0,,00.0,0639.6,30.9
2021-03-13T00:46:00Z,00000200,01000000,-000.19,0000.32,0000.03,0000.18,0000.05,0000.03,0000.31,0000.40,-000.21,17.0,24.0,,00.0,0639.6,30.9
2021-03-13T00:47:00Z,00000200,01000000,-000.89,0000.44,0000.05,0000.61,0000.07,0000.14,-000.12,0000.04,-000.01,17.0,24.1,,00.0,0639.6,30.9
2021-03-13T00:48:00Z,00000200,01000000,0000.55,0000.33,-000.10,0000.20,0000.13,0000.18,0000.16,0000.16,0000.09,17.1,24.1,,00.0,0639.6,30.9
2021-03-13T00:49:00Z,00000200,01000000,-000.03,0000.17,-000.04,0000.17,0000.08,-000.09,-000.06,0000.16,0000.37,17.1,24.1,,00.0,0639.6,30.9
2021-03-13T00:50:00Z,00000200,01000000,0000.45,0000.28,-000.01,0000.05,0000.27,0000.13,-000.21,-000.49,-000.33,17.2,24.1,,00.0,0639.6,30.9
2021-03-13T00:51:00Z,00000200,01000000,0000.19,0000.26,0000.13,-000.07,-000.08,0000.13,-000.09,-000.09,-000.16,17.1,24.1,,00.0,0639.6,30.9
2021-03-13T00:52:00Z,00000200,01000000,-000.56,0000.33,0000.19,0000.49,0000.00,-000.24,0000.25,0000.35,-000.02,17.1,24.1,,00.0,0639.6,30.9
2021-03-13T00:53:00Z,00000200,01000000,-000.15,0000.20,-000.18,0000.04,0000.20,0000.09,-000.01,-000.02,0000.36,17.0,24.1,,00.0,0639.6,30.9
2021-03-13T00:54:00Z,00000200,01000000,-000.23,0000.11,-000.29,0000.28,0000.18,0000.03,0000.08,-000.36,-000.32,17.0,24.1,,00.0,0639.6,30.9
2021-03-13T00:55:00Z,00000200,01000000,0000.61,-000.04,0000.00,0000.49,0000.34,0000.17,0000.00,0000.34,0000.23,16.9,24.0,,00.0,0639.6,30.9
2021-03-13T00:56:00Z,00000200,01000000,0000.29,-000.05,0000.25,-000.00,0000.18,0000.23,-000.11,-000.30,-000.06,16.9,24.0,,00.0,0639.6,30.9
2021-03-13T00:57:00Z,00000200,41000000,,,,,,,0000.02,0000.27,0000.23,16.9,24.0,,00.0,0639.6,30.9
2021-03-13T00:58:00Z,00000200,61000000,,,,,,,0000.28,0000.07,0000.07,16.5,24.2,,00.0,0638.6,30.9
2021-03-13T00:59:00Z,00000200,21000000,,,,,,,-000.32,0000.17,-000.42,16.5,24.3,,00.0,0638.6,30.9
